Flag for Russia Weather past 2 weeks in Petropavlovsk-Kamchatsky, Russia

Now
59 °F

Clear.


Feels Like: 58 °F
Forecast: 48 / 65 °F
Wind: 8 mph from South

Location: Petropavlovsk-Kamchatskij

Current Time: Sep 1, 2015 at 6:03:50 PM

Latest Report: Sep 1, 2015 at 5:30 PM


Visibility: N/A

Pressure: 29.47 "Hg

Humidity: 59%

Dew point: 45 °F

Location of Petropavlovsk-KamchatskyLocation

Historic Weather in Petropavlovsk-Kamchatsky — Graph

°F

Petropavlovsk-Kamchatsky temperature yesterday

Maximum temperature yesterday: 63 °F (at 12:30 PM)
Minimum temperature yesterday: 52 °F (at 12:00 AM)
Average temperature yesterday: 55 °F

Past Weeks' High & Low Weather Summary

 TemperatureHumidityPressure
High79 °F (Aug 19, 2:30 PM)94% (Aug 18, 4:00 AM)30.24 "Hg (Aug 18, 4:00 AM)
Low39 °F (Aug 26, 7:00 AM)23% (Aug 26, 2:00 PM)29.42 "Hg (Aug 24, 5:00 PM)
Average56 °F75%29.87 "Hg
* Reported Aug 17 5:00 PM — Sep 1 5:00 PM, Petropavlovsk-Kamchatsky, Weather by CustomWeather, © 2015

Note: Actual official high and low records may vary slightly from our data, if they occured in-between our weather recording intervals... More about our weather records

Advertising

Petropavlovsk-Kamchatsky weather history for previous 24 hours

 ConditionsComfort  
Time TempWeatherWind HumidityBarometerVisibility
5:00 PM
Tue, Sep 1
61 °FClear.10 mph59%29.47 "HgN/A
4:30 PM61 °FClear.8 mph59%29.47 "HgN/A
3:30 PM63 °FClear.3 mph59%29.47 "HgN/A
2:30 PM63 °FClear.3 mph52%29.50 "HgN/A
2:00 PM63 °FClear.3 mph49%29.50 "HgN/A
1:30 PM63 °FClear.3 mph52%29.50 "HgN/A
1:00 PM61 °FClear.1 mph55%29.50 "HgN/A
12:30 PM61 °FClear.1 mph52%29.50 "HgN/A
12:00 PM59 °FClear.1 mph55%29.53 "HgN/A
11:30 AM59 °FClear.1 mph55%29.53 "HgN/A
11:00 AM57 °FClear.1 mph59%29.53 "HgN/A
10:30 AM57 °FClear.1 mph59%29.53 "HgN/A
10:00 AM57 °FClear.3 mph59%29.53 "HgN/A
9:00 AM55 °FClear.3 mph67%29.53 "HgN/A
8:30 AM54 °FClear.1 mph77%29.53 "HgN/A
8:00 AM52 °FClear.No wind82%29.53 "HgN/A
7:30 AM50 °FClear.3 mph88%29.56 "HgN/A
7:00 AM50 °FClear.3 mph88%29.53 "HgN/A
6:00 AM50 °FClear.3 mph88%29.53 "HgN/A
5:00 AM50 °FClear.3 mph88%29.56 "HgN/A
4:00 AM50 °FClear.1 mph88%29.56 "HgN/A
3:00 AM50 °FClear.3 mph88%29.56 "HgN/A
2:00 AM50 °FClear.3 mph88%29.59 "HgN/A
1:00 AM50 °FPartly cloudy.1 mph94%29.59 "HgN/A
12:00 AM52 °FPartly cloudy.1 mph82%29.59 "HgN/A
11:00 PM
Mon, Aug 31
52 °FPassing clouds.3 mph77%29.62 "HgN/A
10:00 PM52 °FPassing clouds.1 mph77%29.62 "HgN/A
9:00 PM52 °FPassing clouds.3 mph72%29.62 "HgN/A
8:30 PM52 °FPassing clouds.3 mph72%29.62 "HgN/A
8:00 PM54 °FPartly sunny.3 mph67%29.62 "HgN/A
7:30 PM54 °FPartly sunny.6 mph67%29.62 "HgN/A
7:00 PM54 °FPartly sunny.8 mph72%29.62 "HgN/A
6:30 PM55 °FPartly sunny.6 mph67%29.62 "HgN/A
6:00 PM55 °FPartly sunny.3 mph72%29.62 "HgN/A
Weather by CustomWeather, © 2015

See weather overviewHow to use our weather pages